Regional Weather Roundup
Issued by NWS

Home | Current Version | Previous Version | Graphics & Text | Print | Product List | Glossary Off
Versions: 1 2 3 4 5 6 7 8 9 10 11 12 13 14 15 16 17 18 19 20 21 22 23 24 25 26 27 28 29 30 31 32 33 34 35 36 37 38 39 40 41 42 43 44 45 46 47 48 49 50

000
ASUS43 KMPX 221410
RWRMN
WEATHER ROUNDUP FOR MINNESOTA
NATIONAL WEATHER SERVICE TWIN CITIES/CHANHASSEN MN
800 AM CST WED NOV 22 2017


NOTE: "FAIR" INDICATES FEW OR NO CLOUDS BELOW 12,000 FEET WITH NO
SIGNIFICANT WEATHER AND/OR OBSTRUCTIONS TO VISIBILITY. N/A MEANS
CURRENT SKY AND/OR WEATHER CONDITIONS ARE NOT AVAILABLE.

MNZ060>063-068>070-221500-
   Twin Cities Metro

CITY           SKY/WX    TMP DP  RH WIND       PRES   REMARKS
TWIN CITIES    CLOUDY    16  12  84 SW5       30.34R WCI   9
ST PAUL        CLOUDY    16  12  84 CALM      30.35R
CRYSTAL        CLOUDY    14   8  77 S3        30.32S
BLAINE         PTCLDY    16  12  86 SW3       30.32R
LAKEVILLE      CLOUDY    10  10 100 CALM      30.32F
EDEN PRAIRIE   CLOUDY    15  11  83 CALM      30.33R
SOUTH ST PAUL  CLOUDY    15  11  83 CALM      30.34S
LAKE ELMO      FAIR      14  10  85 CALM      30.34R
$$
MNZ001>005-007-008-013>017-022>024-027-028-221500-
   Northwest Minnesota

CITY           SKY/WX    TMP DP  RH WIND       PRES   REMARKS
BEMIDJI        CLOUDY     8   5  86 S7        30.14F WCI  -3
HALLOCK        CLOUDY    14   9  79 S10       30.10F WCI   1
ROSEAU         CLOUDY    12   9  85 S10       30.11S WCI  -1
WARROAD        CLOUDY    10   7  85 S5        30.11F WCI   2
THIEF RVR FALL CLOUDY    12   8  84 S13       30.13F WCI  -3
CROOKSTON      CLOUDY    14   9  79 SW13      30.17S WCI   0
FOSSTON        CLOUDY     9   7  92 S14       30.15F WCI  -8
DETROIT LAKES  PTCLDY    14  10  85 S10       30.19F WCI   1
MOORHEAD       PTCLDY    12   7  79 S14       30.18F WCI  -3
PARK RAPIDS    CLOUDY    10   5  80 S6        30.16F WCI   0
MAHNOMEN       PTSUNNY   11   8  85 S12       30.16F WCI  -3
$$
MNZ006-009>011-018-025>026-221500-
   North Central Minnesota

CITY           SKY/WX    TMP DP  RH WIND       PRES   REMARKS
BAUDETTE       CLOUDY     9   6  88 S5        30.11F WCI   1
FLAG ISLAND    CLOUDY    12   9  85 S7        30.09F WCI   2
INTL FALLS       N/A      5   1  83 SE5       30.15F WCI  -4
WASKISH        CLOUDY     9   7  92 CALM      30.15S
BIG FORK       CLOUDY     9   5  85 CALM      30.16F
LONGVILLE      PTCLDY     9   7  92 CALM      30.19F
GRAND RAPIDS   CLOUDY    10   7  87 S6        30.21F WCI   0
CRANE LAKE     CLOUDY     5   3  92 CALM      30.21F
ORR            CLOUDY     5   1  85 CALM      30.14F
COOK           FLURRIES   3   1  92 CALM      30.18F
WALKER         FAIR      10   7  88 S7        30.17F WCI  -2
$$
MNZ012-019>021-037-221500-
   Northeast Minnesota

CITY           SKY/WX    TMP DP  RH WIND       PRES   REMARKS
DULUTH         PTCLDY    10   7  87 W9        30.21R WCI  -3
ELY            LGT SNOW   7   5  92 SW3       30.19R
HIBBING        CLOUDY     5   2  87 S3        30.20S
EVELETH        CLOUDY     7   3  85 W5        30.21S WCI  -2
DULUTH HARBOR  CLOUDY    16  10  79 SW9       30.29S WCI   4
TWO HARBORS    PTCLDY    14   9  79 W6        30.21S WCI   5
SILVER BAY     PTCLDY    10   9  92 W3        30.21R
GRAND MARAIS     N/A     20  14  77 NW5       30.22S WCI  13
G MARAIS ARPRT CLOUDY     9   5  85 CALM      30.13S
$$
MNZ029>031-032-039>041-046>048-054>057-064-221500-
   West Central Minnesota

CITY           SKY/WX    TMP DP  RH WIND       PRES   REMARKS
FERGUS FALLS   PTCLDY    12   9  85 S9        30.25F WCI   0
WHEATON        PTCLDY    14   9  79 SE9       30.24F WCI   2
MORRIS         PTCLDY    12   9  85 S6        30.24S WCI   3
ALEXANDRIA     CLEAR     13  10  88 S9        30.23S WCI   1
ELBOW LAKE     FAIR      12  10  88 S8        30.23F WCI   1
WADENA         CLOUDY    10   9  92 SW3       30.20S
GLENWOOD       CLEAR     10   9  92 S6        30.24F WCI   1
APPLETON       CLOUDY    16   9  73 S6        30.26F WCI   7
BENSON         CLOUDY    10   7  85 S5        30.27F WCI   2
ORTONVILLE     PTCLDY    14   9  79 MISG      30.23F
MADISON        PTCLDY    16  10  79 S6        30.26F WCI   7
WILLMAR        FAIR      12   9  85 CALM      30.27F
$$
MNZ033>034-036-042>043-049>051-058-059-221500-
   Central Minnesota

CITY           SKY/WX    TMP DP  RH WIND       PRES   REMARKS
ST CLOUD       CLOUDY    11   9  92 SE5       30.27F WCI   3
SAUK CENTRE    FAIR      10   8  90 S5        30.24F WCI   2
PAYNESVILLE    CLOUDY    14  12  92 S6        30.26F WCI   5
AITKIN         CLOUDY    10   9  92 S3        30.21F
PINE RIVER     CLOUDY     7   3  85 SE3       30.23F
BRAINERD       CLEAR     11   8  88 S5        30.23F WCI   3
STAPLES        CLOUDY     9   7  92 S5        30.21F WCI   0
LITTLE FALLS   CLEAR     10   5  79 CALM      30.26F
LITCHFIELD     CLOUDY    12  10  92 CALM      30.29F
BUFFALO        CLOUDY    13  10  88 SE3       30.31F
MAPLE LAKE     CLOUDY    14  13  95 S3        30.29F
HUTCHINSON     PTCLDY    11   9  89 CALM      30.31F
$$
MNZ037-044-045-052-053-221500-
   East Central Minnesota

CITY           SKY/WX    TMP DP  RH WIND       PRES   REMARKS
PRINCETON      CLOUDY    10   9  92 CALM      30.28F
MORA           CLOUDY    12  10  92 CALM      30.30S
CAMBRIDGE      CLOUDY    12   7  79 CALM      30.31S
RUSH CITY      CLOUDY    12  10  92 CALM      30.31R
MOOSE LAKE     CLOUDY     9   5  85 CALM      30.25S
HINCKLEY       FAIR      14  12  92 SW3       30.29R
CLOQUET        CLOUDY    10   7  85 CALM      30.23S
MCGREGOR       CLOUDY    12  10  92 CALM      30.23F
$$
MNZ071>073-080-081-089-090-097-098-221500-
   Southwest Minnesota

CITY           SKY/WX    TMP DP  RH WIND       PRES   REMARKS
MONTEVIDEO     CLOUDY    12  10  92 SW6       30.27F WCI   3
GRANITE FALLS  CLOUDY    12   8  85 S7        30.29F WCI   1
CANBY          PTCLDY    15  10  83 CALM      30.26S
MARSHALL       CLOUDY    14   8  77 S9        30.27F WCI   2
REDWOOD FALLS  CLOUDY    11   5  77 S7        30.29F WCI   0
OLIVIA         CLOUDY    12   9  85 SE5       30.28F WCI   4
PIPESTONE      CLOUDY    12   7  79 S6        30.23F WCI   3
WINDOM           N/A     12   1  62 S5        30.29S WCI   4
WORTHINGTON    CLOUDY    13   7  77 S9        30.28F WCI   1
JACKSON        CLOUDY    12   9  85 CALM      30.30S
SLAYTON        CLOUDY    12   5  73 S9        30.25F WCI   0
$$
MNZ065>067-074>077-082>085-091>093-221500-
   South Central Minnesota

CITY           SKY/WX    TMP DP  RH WIND       PRES   REMARKS
MANKATO        CLOUDY    13  10  88 S6        30.34R WCI   4
NEW ULM        CLOUDY     9   5  85 CALM      30.32F
ST JAMES       CLOUDY    10   7  85 S5        30.33F WCI   2
FAIRMONT       CLOUDY    12   9  87 SW5       30.34R WCI   4
GLENCOE        CLOUDY    13  11  92 CALM      30.30F
FARIBAULT      CLOUDY    12  10  92 CALM      30.33R
OWATONNA       CLOUDY    12  10  92 S6        30.32S WCI   3
WASECA         CLOUDY    12  10  92 CALM      30.34R
ALBERT LEA     CLOUDY    14  10  85 CALM      30.32R
$$
MNZ078>079-086>088-094>096-221500-
   Southeast Minnesota

CITY           SKY/WX    TMP DP  RH WIND       PRES   REMARKS
ROCHESTER      CLOUDY    14  10  84 SW3       30.31R
RED WING       CLOUDY    14   9  79 CALM      30.34R
STANTON        CLOUDY    13  10  87 S3        30.33R
DODGE CENTER   CLOUDY    12   9  85 CALM      30.30S
WINONA         CLOUDY    19  12  73 CALM      30.37R
AUSTIN         CLOUDY    12  10  92 CALM      30.32S
PRESTON          N/A     13  10  86 CALM      30.32R
$$
ABBREVIATIONS USED IN REMARKS
   TC - TEMPERATURES IN CELSIUS
  WCI - WIND CHILL INDEX
   HX - HEAT INDEX
  VSB - VISIBILITY
$$




USA.gov is the U.S. government's official web portal to all federal, state and local government web resources and services.